FW7665 Weather Reports


Display with metric or nautical units.
time (UTC)temp
F
wind
direction
speed
MPH
gust
MPH
rain 1hr
in
rain 24hr
in
rain mn
in
humidity
%
barometer
mb
20260902081807 48 0 0.0 0.0 0.00 0.00 0.00 77 1025.1
20260902080907 49 0 0.0 0.0 0.00 0.00 0.00 77 1025.1
20260902080009 49 0 0.0 0.0 0.00 0.00 0.00 77 1025.1
20260902075408 49 0 0.0 0.0 0.00 0.00 0.00 78 1025.1
20260902074506 49 0 0.0 0.0 0.00 0.00 0.00 77 1025.1
20260902073607 50 0 0.0 0.0 0.00 0.00 0.00 76 1025.1
20260902072707 50 0 0.0 0.0 0.00 0.00 0.00 77 1025.1
20260902071807 50 0 0.0 0.0 0.00 0.00 0.00 77 1025.1
20260902070927 50 0 0.0 0.0 0.00 0.00 0.00 76 1025.1
20260902070017 51 0 0.0 0.0 0.00 0.00 0.00 77 1025.1
20260902065407 51 0 0.0 0.0 0.00 0.00 0.00 76 1025.1
20260902064506 51 0 0.0 0.0 0.00 0.00 0.00 75 1025.1
20260902063607 51 0 0.0 0.0 0.00 0.00 0.00 76 1025.1
20260902062706 51 0 0.0 0.0 0.00 0.00 0.00 74 1025.1
20260902061807 51 0 0.0 0.0 0.00 0.00 0.00 75 1025.1
20260902060906 52 0 0.0 0.0 0.00 0.00 0.00 74 1025.1
20260902060012 52 0 0.0 0.0 0.00 0.00 0.00 73 1025.1
20260902055408 52 0 0.0 0.0 0.00 0.00 0.00 73 1025.1
20260902054506 52 0 0.0 0.0 0.00 0.00 0.00 73 1025.1
20260902053607 52 0 0.0 0.0 0.00 0.00 0.00 73 1025.1
20260902051807 52 119 0.0 2.0 0.00 0.00 0.00 73 1025.2
20260902050906 53 0 0.0 0.0 0.00 0.00 0.00 70 1025.2
20260902050033 53 0 0.0 0.0 0.00 0.00 0.00 72 1025.2
20260902045407 53 0 0.0 0.0 0.00 0.00 0.00 71 1025.2
20260902044506 54 0 0.0 0.0 0.00 0.00 0.00 69 1025.2
20260902043607 54 0 0.0 0.0 0.00 0.00 0.00 70 1025.2
20260902042706 55 0 0.0 0.0 0.00 0.00 0.00 69 1025.2
20260902041806 55 0 0.0 0.0 0.00 0.00 0.00 71 1024.9
20260902040906 56 0 0.0 0.0 0.00 0.00 0.00 73 1024.9
20260902040007 56 0 0.0 0.0 0.00 0.01 0.00 71 1024.9
20260902035427 56 0 0.0 0.0 0.00 0.01 0.00 71 1024.9
20260902034506 56 0 0.0 0.0 0.00 0.01 0.00 72 1024.9
20260902033606 57 0 0.0 0.0 0.00 0.01 0.00 69 1024.9
20260902032705 57 0 0.0 0.0 0.00 0.01 0.00 70 1024.9
20260902031806 57 0 0.0 0.0 0.00 0.01 0.00 67 1023.2
20260902030927 58 0 0.0 0.0 0.00 0.01 0.00 70 1023.2
20260902030027 58 0 0.0 0.0 0.00 0.01 0.00 70 1023.2
20260902025406 58 0 0.0 0.0 0.00 0.01 0.00 68 1023.2
20260902024505 58 0 0.0 0.0 0.00 0.01 0.00 70 1023.2
20260902023629 59 0 0.0 0.0 0.00 0.01 0.00 69 1023.2
20260902022705 59 0 0.0 0.0 0.00 0.02 0.00 68 1023.2
20260902021806 59 0 0.0 0.0 0.00 0.02 0.00 68 1023.2
20260902020905 60 0 0.0 0.0 0.00 0.03 0.00 66 1023.2
20260902020007 60 0 0.0 0.0 0.00 0.04 0.00 63 1023.2
20260902015406 61 0 0.0 0.0 0.00 0.06 0.00 60 1023.2
20260902014505 61 0 0.0 0.0 0.00 0.08 0.00 59 1023.2
20260902013606 62 0 0.0 0.0 0.00 0.09 0.00 60 1023.2
20260902012705 63 117 0.0 2.0 0.00 0.09 0.00 56 1023.2
20260902011806 63 0 0.0 0.0 0.00 0.09 0.00 58 1023.2
20260902010905 64 0 0.0 0.0 0.00 0.09 0.00 58 1023.2
20260902010006 64 0 0.0 0.0 0.00 0.09 0.00 55 1023.2
20260902005428 64 0 0.0 0.0 0.00 0.09 0.00 57 1023.2
20260902004505 66 117 0.0 2.0 0.00 0.09 0.00 50 1023.2
20260902003606 66 117 2.0 7.0 0.00 0.09 0.00 50 1023.2
20260902002705 67 113 3.0 7.0 0.00 0.09 0.00 49 1023.2
20260902001806 68 107 3.0 7.0 0.00 0.09 0.00 46 1023.2
20260902000905 68 72 2.0 7.0 0.00 0.09 0.00 45 1023.2
20260902000006 68 345 1.0 3.0 0.00 0.09 0.00 49 1023.2
20260901235406 69 62 2.0 6.0 0.00 0.09 0.00 44 1023.2
20260901234505 68 100 2.0 5.0 0.00 0.11 0.00 38 1024.3
20260901233606 68 177 1.0 3.0 0.00 0.12 0.00 42 1024.3
20260901232707 66 182 1.0 2.0 0.00 0.12 0.00 44 1024.3
20260901231804 67 181 1.0 4.0 0.00 0.13 0.00 42 1024.3
20260901230905 68 109 1.0 4.0 0.00 0.15 0.00 43 1024.3
20260901230027 69 96 2.0 7.0 0.00 0.15 0.00 36 1024.3
20260901225407 68 108 2.0 7.0 0.00 0.15 0.00 41 1024.3
20260901224505 68 168 2.0 6.0 0.00 0.15 0.00 42 1024.3
20260901223604 68 125 2.0 10.0 0.00 0.15 0.00 41 1024.3
20260901222705 68 149 2.0 7.0 0.00 0.15 0.00 42 1024.3
20260901221804 69 326 3.0 12.0 0.00 0.15 0.00 38 1024.3
20260901220905 69 290 2.0 7.0 0.00 0.15 0.00 41 1024.3
20260901220005 69 263 3.0 8.0 0.00 0.15 0.00 38 1024.3
20260901215404 69 285 3.0 10.0 0.00 0.15 0.00 37 1024.3
20260901214504 69 245 3.0 10.0 0.00 0.15 0.00 39 1024.3
20260901213605 69 259 2.0 7.0 0.00 0.15 0.00 37 1024.3
20260901212705 70 265 3.0 8.0 0.00 0.15 0.00 36 1024.3
20260901211825 70 237 3.0 8.0 0.00 0.15 0.00 36 1024.3
20260901210905 70 269 3.0 9.0 0.00 0.15 0.00 35 1024.3
20260901210005 68 253 2.0 7.0 0.00 0.15 0.00 41 1024.3
20260901205405 66 255 3.0 9.0 0.00 0.15 0.00 41 1024.3
20260901204505 65 268 3.0 11.0 0.00 0.15 0.00 45 1024.3
20260901203625 65 245 4.0 12.0 0.00 0.15 0.00 42 1024.3
20260901202705 67 258 4.0 13.0 0.00 0.15 0.00 42 1024.3
20260901201804 68 283 2.0 7.0 0.00 0.15 0.00 41 1024.3
20260901200905 69 356 2.0 5.0 0.00 0.15 0.00 44 1024.3
20260901200006 71 52 2.0 6.0 0.00 0.15 0.00 39 1024.3
20260901195404 70 55 3.0 10.0 0.00 0.15 0.00 38 1024.3
20260901194505 70 32 2.0 8.0 0.00 0.15 0.00 37 1024.3
20260901193625 71 61 3.0 8.0 0.00 0.15 0.00 38 1024.3
20260901192705 72 59 4.0 10.0 0.00 0.15 0.00 36 1024.3
20260901191807 72 26 4.0 12.0 0.00 0.15 0.00 38 1024.3
20260901190905 72 29 2.0 4.0 0.00 0.15 0.00 43 1024.3
20260901190004 71 282 2.0 4.0 0.00 0.15 0.00 35 1025.1
20260901185403 69 264 3.0 8.0 0.00 0.15 0.00 40 1025.1
20260901184526 68 257 2.0 6.0 0.00 0.15 0.00 41 1025.1
20260901183604 69 291 2.0 7.0 0.00 0.15 0.00 40 1025.1
20260901182726 68 28 2.0 11.0 0.00 0.15 0.00 43 1025.1
20260901181804 71 2 4.0 11.0 0.00 0.15 0.00 35 1025.1
20260901180904 70 20 2.0 9.0 0.00 0.15 0.00 37 1025.1
20260901180004 71 70 2.0 4.0 0.00 0.15 0.00 35 1025.1
20260901175425 72 83 2.0 6.0 0.00 0.15 0.00 36 1025.1
20260901174526 71 64 3.0 8.0 0.00 0.15 0.00 36 1025.1
20260901173625 70 61 3.0 7.0 0.00 0.15 0.00 43 1025.1
20260901172726 70 110 2.0 7.0 0.00 0.15 0.00 40 1025.1
20260901171804 69 110 2.0 10.0 0.00 0.15 0.00 41 1025.1
20260901170905 68 15 4.0 11.0 0.00 0.15 0.00 43 1025.1
20260901170004 67 9 2.0 6.0 0.00 0.15 0.00 48 1025.2
20260901165403 66 96 1.0 3.0 0.00 0.15 0.00 52 1025.2
20260901164505 65 74 1.0 6.0 0.00 0.15 0.00 54 1025.2
20260901163604 64 59 2.0 5.0 0.00 0.15 0.00 58 1025.2
20260901162725 62 45 2.0 5.0 0.00 0.15 0.00 63 1025.2
20260901161804 60 47 2.0 6.0 0.00 0.15 0.00 73 1025.2
20260901160904 58 96 2.0 7.0 0.00 0.15 0.00 85 1025.2
20260901160006 57 107 2.0 6.0 0.00 0.15 0.00 89 1025.8
20260901155403 56 106 1.0 6.0 0.00 0.15 0.00 84 1025.8
20260901154504 54 86 1.0 4.0 0.00 0.15 0.00 84 1025.8
20260901153603 54 342 1.0 3.0 0.00 0.15 0.00 83 1025.8
20260901152704 53 330 0.0 3.0 0.00 0.15 0.00 84 1025.8
20260901151803 52 330 0.0 1.0 0.00 0.15 0.00 85 1025.8
20260901150904 52 0 0.0 0.0 0.00 0.15 0.00 86 1025.8
20260901150003 51 0 0.0 0.0 0.00 0.15 0.00 86 1025.8
20260901143606 50 0 0.0 0.0 0.00 0.15 0.00 87 1025.7
20260901142705 50 0 0.0 0.0 0.00 0.15 0.00 88 1025.7
20260901141805 50 0 0.0 0.0 0.00 0.15 0.00 88 1025.7
20260901140905 49 0 0.0 0.0 0.00 0.15 0.00 89 1025.7
20260901140027 49 0 0.0 0.0 0.00 0.15 0.00 89 1024.3
20260901135406 49 0 0.0 0.0 0.00 0.15 0.00 89 1024.3
20260901134505 49 0 0.0 0.0 0.00 0.15 0.00 89 1024.3
20260901133605 48 0 0.0 0.0 0.00 0.15 0.00 90 1024.3
20260901132705 48 0 0.0 0.0 0.00 0.15 0.00 90 1024.3
20260901131805 48 0 0.0 0.0 0.00 0.15 0.00 90 1024.3
20260901130926 48 0 0.0 0.0 0.00 0.15 0.00 90 1024.3
20260901130006 48 0 0.0 0.0 0.00 0.15 0.00 90 1024.3
20260901125426 48 0 0.0 0.0 0.00 0.15 0.00 90 1024.3
20260901124526 49 0 0.0 0.0 0.00 0.15 0.00 90 1024.3
20260901123605 49 0 0.0 0.0 0.00 0.15 0.00 90 1024.3
20260901122705 49 0 0.0 0.0 0.00 0.15 0.00 90 1024.3
20260901121826 49 0 0.0 0.0 0.00 0.15 0.00 90 1024.3
20260901120905 49 0 0.0 0.0 0.00 0.15 0.00 90 1024.3
20260901120027 49 0 0.0 0.0 0.00 0.15 0.00 90 1024.4
20260901115405 49 0 0.0 0.0 0.00 0.15 0.00 90 1024.4
20260901114505 49 0 0.0 0.0 0.00 0.15 0.00 90 1024.4
20260901113605 49 0 0.0 0.0 0.00 0.15 0.00 90 1024.7
20260901112705 49 0 0.0 0.0 0.00 0.15 0.00 90 1024.7
20260901111826 49 0 0.0 0.0 0.00 0.15 0.00 90 1024.7
20260901110905 49 0 0.0 0.0 0.00 0.15 0.00 90 1024.7
20260901110005 50 0 0.0 0.0 0.00 0.15 0.00 90 1024.7
20260901105426 50 0 0.0 0.0 0.00 0.15 0.00 90 1024.7
20260901104526 50 0 0.0 0.0 0.00 0.15 0.00 91 1024.7
20260901103606 50 0 0.0 0.0 0.00 0.15 0.00 91 1024.7
20260901102704 50 0 0.0 0.0 0.00 0.15 0.00 90 1024.7
20260901101826 50 329 0.0 1.0 0.00 0.15 0.00 90 1024.7
20260901100905 50 0 0.0 0.0 0.00 0.15 0.00 90 1024.7
20260901095405 50 0 0.0 0.0 0.00 0.15 0.00 91 1025.4
20260901094525 51 0 0.0 0.0 0.00 0.15 0.00 91 1025.4
20260901093605 51 0 0.0 0.0 0.00 0.15 0.00 90 1025.4
20260901092726 51 0 0.0 0.0 0.00 0.15 0.00 90 1025.4
20260901091804 51 0 0.0 0.0 0.00 0.15 0.00 90 1025.4
20260901090904 51 0 0.0 0.0 0.00 0.15 0.00 90 1025.4
20260901090026 51 0 0.0 0.0 0.00 0.15 0.00 90 1025.4
20260901085404 51 0 0.0 0.0 0.00 0.15 0.00 90 1025.4
20260901084504 51 0 0.0 0.0 0.00 0.15 0.00 90 1025.4
20260901083625 51 0 0.0 0.0 0.00 0.15 0.00 90 1025.4
20260901082704 51 0 0.0 0.0 0.00 0.15 0.00 90 1025.4